Regional Weather Roundup
Issued by NWS

Home | Current Version | Previous Version | Text Only | Print | Product List | Glossary Off
Versions: 1 2 3 4 5 6 7 8 9 10 11 12 13 14 15 16 17 18 19 20 21 22 23 24 25 26 27 28 29 30 31 32 33 34 35 36 37 38 39 40 41 42 43 44 45 46 47 48 49 50

000
ASUS43 KMKX 310811
RWRWI

WISCONSIN REGIONAL WEATHER ROUNDUP
NATIONAL WEATHER SERVICE MILWAUKEE/SULLIVAN WI
300 AM CDT THU JUL 31 2014

NOTE: "FAIR" INDICATES FEW OR NO CLOUDS BELOW 12,000 FEET WITH NO
SIGNIFICANT WEATHER AND/OR OBSTRUCTIONS TO VISIBILITY.

WIZ001-002-006>008-014>016-023>028-310900-
NORTHWEST WISCONSIN

CITY           SKY/WX    TMP DP  RH WIND       PRES   REMARKS
SUPERIOR ARPT  PTCLDY    59  57  92 SW3       29.98S
ASHLAND        CLEAR     56  55  97 SW3       29.98S
HAYWARD        FOG       56  56 100 S3        30.00S VSB 1/2
SIREN          CLEAR     60  57  91 CALM      30.01S
RICE LAKE      CLEAR     57  55  95 CALM      30.03S FOG
LADYSMITH      PTCLDY    59  57  96 CALM      30.01F FOG
EAU CLAIRE     CLEAR     60  58  92 SW6       30.00F
MENOMONIE      SUNNY     62  57  82 W6        30.01F
NEW RICHMOND   CLEAR     58  56  92 W3        30.03S
OSCEOLA        CLEAR     56  56 100 CALM      30.05S
$$

WIZ003>005-009-010-017-018-310900-
NORTH CENTRAL WISCONSIN

CITY           SKY/WX    TMP DP  RH WIND       PRES   REMARKS
WOODRUFF       HAZE      52  46  79 CALM      29.99S VSB 3/4
RHINELANDER    FOG       51  50  96 CALM      30.00S VSB 1/4
EAGLE RIVER    FOG       47  47 100 CALM      29.98F VSB 1/4
LAND O LAKES   FOG       46  46 100 CALM      29.99F VSB 1/2
PHILLIPS       PTCLDY    57  57  99 CALM      29.99F
TOMAHAWK       FOG       48  47  97 CALM      30.00S VSB 1/4
MEDFORD        CLOUDY    58  57  98 CALM      30.00F
MERRILL        FOG       51  51 100 CALM      29.99F VSB 1/4
$$

WIZ029-030-035-036-043>047-310900-
CENTRAL WISCONSIN

CITY           SKY/WX    TMP DP  RH WIND       PRES   REMARKS
WAUSAU         MOCLDY    60  58  92 NW3       29.98S
MOSINEE        CLOUDY    61  59  94 NW3       30.00F
MARSHFIELD     PTCLDY    60  57  89 W8        29.99F
STEVENS POINT  CLOUDY    57  55  94 CALM      30.00S
WAUPACA        MOCLDY    63  59  88 W3        29.99S
WAUTOMA        MOCLDY    62  59  90 CALM      30.00S
WISC RAPIDS    MOCLDY    60  59  96 CALM      30.01S FOG
CAMP DOUGLAS   CLEAR     55  55 100 CALM      30.01F
$$

WIZ011>013-019>022-031-037>040-048>050-310900-
NORTHEAST WISCONSIN

CITY           SKY/WX    TMP DP  RH WIND       PRES   REMARKS
ANTIGO         CLEAR     49  49  98 CALM      29.99F
STURGEON BAY   CLEAR     57  55  94 CALM      29.96F
GREEN BAY      CLEAR     58  57  97 CALM      29.97S
MANITOWOC      CLEAR     61  57  87 W7        29.97S
APPLETON       PTCLDY    57  54  88 W10       29.98S
CLINTONVILLE   CLEAR     55  54  94 CALM      29.98S
OSHKOSH        CLOUDY    63  57  81 W6        29.98F
$$

WIZ032>034-041-042-053>061-310900-
SOUTHWEST WISCONSIN

CITY           SKY/WX    TMP DP  RH WIND       PRES   REMARKS
LA CROSSE      CLEAR     64  61  90 SE6       30.01F
SPARTA         CLEAR     54  54  98 CALM      30.03S FOG
VIROQUA        FAIR      60  60  99 W3        30.04S
BOSCOBEL       CLEAR     61  58  90 SW3       30.03F
PRAIRIE DU CHI CLEAR     59  57  92 CALM      30.03F
PLATTEVILLE    FAIR      57  55  94 CALM      30.05S
$$

WIZ056-057-062-063-064-067-068-310900-
SOUTH CENTRAL WISCONSIN

CITY           SKY/WX    TMP DP  RH WIND       PRES   REMARKS
BARABOO/DELLS  PTCLDY    60  55  85 CALM      30.02S
LONE ROCK      CLEAR     59  55  87 CALM      30.02F
WATERTOWN      MOCLDY    56  55  95 CALM      30.00F
MADISON        MOCLDY    64  56  75 N7        30.02S
MIDDLETON      PTSUNNY   63  56  80 W5        30.02S
MONROE         CLEAR     63  55  77 W12       30.03S
JANESVILLE     PTCLDY    59  52  77 CALM      30.01F
$$

WIZ051-052-058>065-066-070>072-310900-
SOUTHEAST WISCONSIN

CITY           SKY/WX    TMP DP  RH WIND       PRES   REMARKS
MILWAUKEE      MOCLDY    62  54  74 S5        30.00F
WAUKESHA       CLEAR     54  50  87 CALM      30.01F
MILWAUKEE/TIMM CLEAR     61  54  77 CALM      30.01S
RACINE         MOCLDY    61  56  83 CALM      30.02S
BURLINGTON     PTCLDY    52  52  99 SW3       30.01S
KENOSHA        CLEAR     60  58  92 SW6       30.01F
FOND DU LAC    CLOUDY    60  56  86 SW6       30.00S
SHEBOYGAN      CLEAR     56  55  97 W6        29.98S
WEST BEND      PTCLDY    57  54  88 SW5       29.99F
JUNEAU         CLOUDY    60  53  78 CALM      30.02S
$$

LSZ147-162-310900-
LAKE SUPERIOR

STATION/POSITION TIME  TEMP    WIND        PRES    WAVE
                       AIR SEA DIR/SP/G            HT/PER
                 (UTC) (F)     (DEG/KT/KT) (MB)    (FT/S)
W MID LAKE BUOY  0750   50 41  270/  8/  8 1013.8F   1
PORT WING        0700   59     130/  2/  3 1015.2S
SAXON HARBOR     0700          190/  2/  4 1014.6F
$$

LMZ867-665-643>646-310900-
LAKE MICHIGAN

STATION/POSITION TIME  TEMP    WIND        PRES    WAVE
                       AIR SEA DIR/SP/G            HT/PER
                 (UTC) (F)     (DEG/KT/KT) (MB)    (FT/S)
N MID LAKE BUOY  0750   57 54  250/  4/  4 1013.5F   1
NORTHPORT PIER   0700   60     300/  5/  6 1014.2F
SISTER BAY       0710   61     360/  8/  9   N/A
ALGOMA LAKESHORE 0606             CALM       N/A
KEWAUNEE LAKESHO 0700   55     290/  2/  3 1014.2F
SHEBOYGAN LAKESH 0800   63     260/  9/ 10 1014.9F
PORT WASHINGTON  0700   60     190/  3/  4 1016.3S
ATWATER BUOY     0800   64     170/  6     1016.5F
MILWAUKEE LAKESH 0700   65     180/  3/  3   N/A
S MID LAKE BUOY  0750   62 60  230/ 10/ 12 1016.0F   0
KENOSHA   LAKESH 0800   63     240/  7/ 13 1015.9F
$$

TC  - TEMPERATURE IN CELSIUS
VSB - VISIBILITY IN STATUTE MILES
WCI - WIND CHILL INDEX
HX  - HEAT INDEX



USA.gov is the U.S. government's official web portal to all federal, state and local government web resources and services.